Location: Boitzum
(52.1496°N, 9.6943°E)
Time: 07:24:29
(UTC+00:00)

Cosmos 1470 Rocket - Pass Details

Date: 13 January 2026
Orbit: 598 x 625 km, 82.5° (Epoch: 18 February)

Event Time Altitude Azimuth Distance (km) Brightness Sun altitude
Rises 06:13:52 0° 177° (S) 2,846 7.3 -10.4°
Reaches altitude 10° 06:16:06 10° 173° (S) 1,944 6.5 -10.0°
Maximum altitude 06:20:18 55° 96° (E) 724 4.3 -9.5°
Drops below altitude 10° 06:24:30 10° 18° (NNE) 1,952 6.1 -8.9°
Sets 06:26:45 0° 14° (NNE) 2,858 6.9 -8.5°
